Tracking 28790 objects as of 19-Apr-2024
HD Live streaming from Space Station
objects crossing your sky now

FENGYUN 1C DEB

Track FENGYUN 1C DEB now!
10-day predictions


NORAD ID: 30546
Int'l Code: 1999-025AKL
Perigee: 580.2 km
Apogee: 752.0 km
Inclination: 98.9 °
Period: 97.9 minutes
Semi major axis: 7037 km
RCS: 0.0069 m2 (small)
Launch date: May 10, 1999
Source: People's Republic of China (PRC)
Launch site: Taiyaun Space Center, China (TSC)

Note: This is SATELLITE DEBRIS
Your satellite tracking list
Your tracking list is empty




NASA's NSSDC Master Catalog

Two Line Element Set (TLE):
1 30546U 99025AKL 24109.35606687  .00015137  00000-0  22201-2 0  9996
2 30546  98.9026 253.1201 0122038 264.7356 123.8304 14.70664285915422
Source of the keplerian elements: AFSPC